Location: Glendale
(37.4556°N, 88.6714°W)
Time: 15:37:25
(UTC+00:00)

Cosmos 1933 Rocket - Pass Details

Date: 08 December 2019
Orbit: 608 x 629 km, 82.5° (Epoch: 19 January)

Event Time Altitude Azimuth Distance (km) Brightness Sun altitude
Rises 11:07:53 0° 198° (SSW) 2,852 6.9 -20.9°
Reaches altitude 10° 11:10:08 10° 204° (SSW) 1,952 6.0 -20.5°
Maximum altitude 11:14:20 50° 280° (W) 781 3.6 -19.7°
Drops below altitude 10° 11:18:33 10° 356° (N) 1,967 5.9 -18.9°
Sets 11:20:51 0° 2° (N) 2,877 6.9 -18.4°
